Location: Grums
(59.3529°N, 13.1129°E)
Time: 00:31:24
(UTC+01:00)

SEEDS - Pass Details

Date: 28 November 2021
Orbit: 584 x 600 km, 97.6° (Epoch: 27 January)

Event Time Altitude Azimuth Distance (km) Brightness Sun altitude
Rises 05:57:34 0° 12° (NNE) 2,835 ? -18.0°
Reaches altitude 10° 05:59:51 10° 5° (N) 1,927 ? -17.7°
Maximum altitude 06:03:41 37° 298° (WNW) 929 ? -17.2°
Enters shadow 06:04:11 35° 281° (W) 954 ? -17.2°
